This demonstration page uses our WeatherBlox Daily Observations layout. Learn more.

Left ArrowRight Arrow

Hourly Observations for August 8, 2021

Temp ( °F °C ) Dew Point ( °F °C ) Humidity (%) Winds ( mph kmh ) Pressure ( in mb ) Visibility ( mi km ) Precip ( " mm )
12:15 am 00:15 Partly Cloudy 73 22.7 71 21.9 95 95 SSW 7 11 29.69 1005 7 11 0.00 0.00
12:35 am 00:35 Partly Cloudy with Mist and Fog 72 22.4 71 21.4 94 94 SE 6 9 29.69 1005 5 8 0.00 0.00
12:55 am 00:55 Partly Cloudy with Mist and Fog 72 22.1 70 21.3 95 95 W 5 7 29.68 1005 4 6 0.00 0.00
1:15 am 01:15 Clear 73 22.6 71 21.9 96 96 Calm 29.69 1005 7 11 0.00 0.00
1:35 am 01:35 Clear 73 22.5 70 21 91 91 E 12 19 29.71 1006 7 11 0.00 0.00
1:55 am 01:55 Clear with Mist and Fog 71 21.8 69 20.8 94 94 E 10 17 29.71 1006 5 8 0.00 0.00
2:15 am 02:15 Clear 70 21.3 68 20.2 93 93 ESE 13 20 29.72 1006 7 11 0.00 0.00
2:35 am 02:35 Clear 69 20.6 66 19 91 91 ESE 14 22 29.73 1007 10 16 0.00 0.00
2:55 am 02:55 Clear 68 20 65 18.5 91 91 ESE 16 26 29.75 1007 10 16 0.00 0.00
3:15 am 03:15 Partly Cloudy 67 19.3 64 18 92 92 SE 16 26 29.75 1008 10 16 0.00 0.00
3:35 am 03:35 Partly Cloudy 66 19.1 64 17.7 92 92 SE 14 22 29.77 1008 10 16 0.00 0.00
3:55 am 03:55 Clear 66 19 64 17.5 91 91 SE 15 24 29.77 1008 10 16 0.00 0.00
4:15 am 04:15 Clear 65 18.6 63 17.2 92 92 SE 16 26 29.76 1008 10 16 0.00 0.00
4:35 am 04:35 Clear 65 18.6 63 17.1 91 91 SE 12 19 29.76 1008 10 16 0.00 0.00
4:55 am 04:55 Clear 65 18.6 63 17.1 91 91 SSE 8 13 29.76 1008 10 16 0.00 0.00
5:15 am 05:15 Clear 65 18.5 63 17 91 91 SSE 12 19 29.76 1008 10 16 0.00 0.00
5:35 am 05:35 Clear 65 18.5 63 17 91 91 SSE 9 15 29.76 1008 10 16 0.00 0.00
5:55 am 05:55 Clear 65 18.4 63 17 92 92 SSE 9 15 29.76 1008 10 16 0.00 0.00
6:15 am 06:15 Clear 65 18.5 63 17.1 92 92 S 10 17 29.76 1008 10 16 0.00 0.00
6:35 am 06:35 Clear 65 18.5 63 17.1 92 92 S 9 15 29.76 1008 10 16 0.00 0.00
6:55 am 06:55 Sunny 65 18.5 63 17.2 92 92 S 9 15 29.76 1008 10 16 0.00 0.00
7:15 am 07:15 Sunny 65 18.5 63 17.3 93 93 S 10 17 29.77 1008 10 16 0.00 0.00
7:35 am 07:35 Sunny 65 18.5 64 17.5 94 94 SSW 8 13 29.76 1008 10 16 0.00 0.00
7:55 am 07:55 Sunny 66 18.7 63 17.3 92 92 SSW 9 15 29.77 1008 10 16 0.00 0.00
8:15 am 08:15 Sunny 66 19.1 64 17.5 91 91 SW 6 9 29.77 1008 10 16 0.00 0.00
8:35 am 08:35 Sunny 67 19.3 64 17.6 90 90 SSW 10 17 29.76 1008 10 16 0.00 0.00
8:55 am 08:55 Sunny 67 19.7 64 17.8 89 89 SW 10 17 29.76 1008 10 16 0.00 0.00
9:15 am 09:15 Sunny 68 20.2 65 18.1 88 88 SW 10 17 29.76 1008 10 16 0.00 0.00
9:35 am 09:35 Partly Cloudy 69 20.8 65 18.3 86 86 WSW 6 9 29.75 1007 10 16 0.00 0.00
9:55 am 09:55 Partly Cloudy 70 21.3 66 18.8 86 86 WSW 8 13 29.75 1007 10 16 0.00 0.00
10:15 am 10:15 Partly Cloudy 71 21.8 66 18.8 83 83 WSW 8 13 29.74 1007 10 16 0.00 0.00
10:35 am 10:35 Sunny 72 22.3 66 19 82 82 W 9 15 29.74 1007 10 16 0.00 0.00
10:55 am 10:55 Sunny 73 22.8 66 18.7 78 78 W 9 15 29.74 1007 10 16 0.00 0.00
11:15 am 11:15 Sunny 74 23.6 66 18.8 75 75 W 7 11 29.74 1007 10 16 0.00 0.00
11:35 am 11:35 Sunny 76 24.7 67 19.4 72 72 WSW 7 11 29.73 1007 10 16 0.00 0.00
11:55 am 11:55 Sunny 78 25.5 67 19.2 68 68 W 7 11 29.71 1006 10 16 0.00 0.00
12:15 pm 12:15 Sunny 79 26.3 66 19.1 65 65 W 6 9 29.71 1006 10 16 0.00 0.00
12:35 pm 12:35 Sunny 81 27.1 67 19.7 64 64 W 6 9 29.70 1006 7 11 0.00 0.00
12:55 pm 12:55 Sunny 82 27.7 67 19.5 61 61 W 8 13 29.70 1006 10 16 0.00 0.00
1:15 pm 13:15 Sunny 83 28.3 68 19.9 60 60 WSW 7 11 29.69 1005 10 16 0.00 0.00
1:35 pm 13:35 Sunny 84 29.1 68 19.9 58 58 WNW 8 13 29.68 1005 10 16 0.00 0.00
1:55 pm 13:55 Sunny 85 29.5 67 19.6 55 55 WNW 7 11 29.67 1005 10 16 0.00 0.00
2:15 pm 14:15 Sunny 86 30.1 67 19.6 53 53 W 7 11 29.67 1005 10 16 0.00 0.00
2:35 pm 14:35 Sunny 87 30.5 65 18.5 49 49 WNW 7 11 29.66 1005 10 16 0.00 0.00
2:55 pm 14:55 Sunny 87 30.7 65 18.2 47 47 W 5 7 29.66 1005 10 16 0.00 0.00
3:15 pm 15:15 Sunny 89 31.4 59 15 37 37 WNW 5 7 29.66 1004 10 16 0.00 0.00
3:35 pm 15:35 Sunny 89 31.7 59 15.2 37 37 Calm 29.66 1004 10 16 0.00 0.00
3:55 pm 15:55 Sunny 89 31.7 58 14.7 36 36 Calm 29.66 1004 10 16 0.00 0.00
4:15 pm 16:15 Sunny 89 31.8 65 18.5 45 45 SSE 3 6 29.64 1004 10 16 0.00 0.00
4:35 pm 16:35 Sunny 89 31.5 65 18.6 46 46 Calm 29.65 1004 10 16 0.00 0.00
4:55 pm 16:55 Sunny 89 31.7 66 18.9 47 47 SE 6 9 29.65 1004 10 16 0.00 0.00
5:15 pm 17:15 Sunny 89 31.8 62 16.8 41 41 SSE 5 7 29.64 1004 10 16 0.00 0.00
5:35 pm 17:35 Sunny 89 31.5 65 18.6 46 46 SSE 6 9 29.65 1004 10 16 0.00 0.00
5:55 pm 17:55 Sunny 88 31 68 20.2 53 53 SSE 6 9 29.64 1004 10 16 0.00 0.00
6:15 pm 18:15 Sunny 87 30.6 70 21.2 57 57 SSE 7 11 29.64 1004 10 16 0.00 0.00
6:35 pm 18:35 Sunny 87 30.3 71 21.7 60 60 SSE 5 7 29.65 1004 10 16 0.00 0.00
6:55 pm 18:55 Sunny 85 29.7 71 21.5 61 61 SSE 5 7 29.65 1004 10 16 0.00 0.00
7:15 pm 19:15 Sunny 84 29.1 71 21.6 64 64 S 5 7 29.66 1004 10 16 0.00 0.00
7:35 pm 19:35 Sunny 83 28.5 70 21.2 65 65 SSE 5 7 29.65 1004 10 16 0.00 0.00
7:55 pm 19:55 Sunny 81 27.3 71 21.5 71 71 SSE 5 7 29.66 1004 10 16 0.00 0.00
8:15 pm 20:15 Sunny 79 26.3 71 21.7 76 76 SSE 6 9 29.67 1005 10 16 0.00 0.00
8:35 pm 20:35 Sunny 78 25.7 70 21.2 76 76 SSE 6 9 29.68 1005 10 16 0.00 0.00
8:55 pm 20:55 Clear 76 24.6 68 20.1 76 76 SSE 6 9 29.69 1005 10 16 0.00 0.00
9:15 pm 21:15 Clear 76 24.3 66 19.1 73 73 SSE 7 11 29.69 1006 10 16 0.00 0.00
9:35 pm 21:35 Clear 75 23.9 66 18.7 73 73 SSE 6 9 29.70 1006 10 16 0.00 0.00
9:55 pm 21:55 Clear 74 23.6 67 19.4 77 77 SSE 5 7 29.71 1006 10 16 0.00 0.00
10:15 pm 22:15 Clear 74 23.6 67 19.5 78 78 SSE 7 11 29.72 1006 10 16 0.00 0.00
10:35 pm 22:35 Clear 74 23.2 67 19.5 80 80 SSE 7 11 29.72 1006 10 16 0.00 0.00
10:55 pm 22:55 Clear 73 23 66 19 78 78 SSE 6 9 29.72 1007 10 16 0.00 0.00
11:15 pm 23:15 Clear 73 22.6 66 19 80 80 SSE 5 7 29.73 1007 10 16 0.00 0.00
11:35 pm 23:35 Clear 73 22.7 66 18.7 78 78 S 7 11 29.73 1007 10 16 0.00 0.00
11:55 pm 23:55 Clear 72 22 66 18.7 82 82 S 5 7 29.74 1007 10 16 0.00 0.00

Powered by AerisWeather